Huntington, WV

3:11 PM EST on January 19, 2017 (GMT -0500)
Tri-State / Ferguson

Weather History for KHTS - January, 2012

Change the Weather History Date:

Tuesday, January 17, 2012

  Actual Average Record
Temperature  
Mean Temperature 49 °F 34 °F  
Max Temperature 61 °F 42 °F 74 °F (1932)
Min Temperature 37 °F 25 °F -14 °F (1982)
Degree Days  
Heating Degree Days 16 32  
Month to date heating degree days 472 533  
Since 1 July heating degree days 1993 2288  
Cooling Degree Days 0 0  
Month to date cooling degree days 0 0  
Year to date cooling degree days 0 0  
Moisture  
Dew Point 43 °F    
Average Humidity 64    
Maximum Humidity 86    
Minimum Humidity 41    
Precipitation  
Precipitation 0.46 in 0.10 in 1.03 in (1978)
Month to date precipitation 1.18 1.62  
Year to date precipitation 1.18 1.62  
Snow  
Snow 0.00 in - - ()
Month to date snowfall 0.3  
Since 1 September snowfall 0.3  
Snow Depth 0.00 in    
Sea Level Pressure  
Sea Level Pressure 29.84 in    
Wind  
Wind Speed 14 mph (SW)    
Max Wind Speed 26 mph    
Max Gust Speed 40 mph    
Visibility 9 miles    
Events Rain , Thunderstorm    
T = Trace of Precipitation, MM = Missing Value Source: NWS Daily Summary

Daily Weather History Graph

Daily Weather History Graph

Search for Another Location

Airport or City:

Trip Planner

Search our weather history database for the weather conditions in past years. The results will help you decide how hot, cold, wet, or windy it might be!

Date:

Astronomy

Jan. 17, 2012 Rise Set
Actual Time 7:45 AM EST 5:35 PM EST
Civil Twilight 7:16 AM EST 6:04 PM EST
Nautical Twilight 6:44 AM EST 6:36 PM EST
Astronomical Twilight 6:12 AM EST 7:08 PM EST
Moon 2:04 AM EST (1/17) 12:27 PM EST (1/17)
Length of Visible Light 10h 47m
Length of Day
9h 49m
Waning Crescent, 35% of the Moon is Illuminated
Jan 17
Waning Crescent
Jan 23
New
Jan 30
First Quarter
Feb 7
Full
Feb 14
Last Quarter

Hourly Weather History & Observations

Time (EST) Temp. Windchill Dew Point Humidity Pressure Visibility Wind Dir Wind Speed Gust Speed Precip Events Conditions
12:51 AM 55.9 °F - 32.0 °F 40% 29.99 in 10.0 mi SSW 15.0 mph 24.2 mph N/A   Overcast
1:51 AM 55.9 °F - 33.1 °F 42% 29.96 in 10.0 mi SSW 15.0 mph 25.3 mph N/A   Overcast
2:51 AM 55.9 °F - 35.1 °F 45% 29.95 in 10.0 mi SSW 13.8 mph 21.9 mph 0.00 in   Mostly Cloudy
3:51 AM 48.9 °F - 43.0 °F 80% 29.94 in 6.0 mi SSW 9.2 mph 17.3 mph 0.04 in Rain Rain
4:51 AM 51.1 °F - 39.9 °F 66% 29.90 in 10.0 mi SSW 9.2 mph - 0.04 in   Overcast
5:51 AM 55.0 °F - 39.0 °F 55% 29.86 in 10.0 mi SSW 11.5 mph 24.2 mph N/A   Mostly Cloudy
6:44 AM 55.4 °F - 42.8 °F 63% 29.86 in 10.0 mi SSW 8.1 mph 18.4 mph 0.02 in Rain , Thunderstorm Light Thunderstorms and Rain
6:51 AM 55.0 °F - 42.1 °F 62% 29.86 in 9.0 mi SSW 11.5 mph 21.9 mph 0.02 in Rain Rain
7:00 AM 53.6 °F - 42.8 °F 67% 29.86 in 10.0 mi SSW 13.8 mph 21.9 mph 0.01 in Rain Rain
7:51 AM 55.4 °F - 42.8 °F 63% 29.83 in 10.0 mi SSW 16.1 mph 24.2 mph N/A   Overcast
8:51 AM 57.0 °F - 42.1 °F 57% 29.83 in 10.0 mi SSW 16.1 mph 27.6 mph 0.00 in   Mostly Cloudy
9:51 AM 57.0 °F - 44.1 °F 62% 29.83 in 10.0 mi SSW 17.3 mph 28.8 mph N/A   Overcast
10:35 AM 57.2 °F - 46.4 °F 67% 29.82 in 10.0 mi SSW 15.0 mph 34.5 mph 0.00 in Rain Light Rain
10:51 AM 57.2 °F - 46.4 °F 67% 29.82 in 10.0 mi SSW 25.3 mph 36.8 mph N/A   Overcast
11:51 AM 59.0 °F - 48.0 °F 67% 29.78 in 10.0 mi SSW 18.4 mph 33.4 mph N/A   Mostly Cloudy
11:58 AM 59.0 °F - 48.2 °F 67% 29.78 in 10.0 mi SSW 15.0 mph 33.4 mph N/A   Mostly Cloudy
12:51 PM 60.1 °F - 48.9 °F 67% 29.73 in 10.0 mi SSW 13.8 mph 28.8 mph N/A   Overcast
1:01 PM 60.8 °F - 50.0 °F 68% 29.73 in 10.0 mi SSW 20.7 mph 29.9 mph 0.00 in Rain Light Rain
1:23 PM 59.0 °F - 51.8 °F 77% 29.71 in 10.0 mi SSW 13.8 mph 24.2 mph 0.01 in   Overcast
1:48 PM 57.2 °F - 51.8 °F 82% 29.71 in 1.8 mi SSW 10.4 mph 20.7 mph 0.04 in Rain Heavy Rain
1:51 PM 57.0 °F - 53.1 °F 87% 29.70 in 1.5 mi SSW 9.2 mph 20.7 mph 0.06 in Rain Heavy Rain
2:03 PM 53.6 °F - 48.2 °F 82% 29.77 in 3.0 mi WSW 23.0 mph 40.3 mph 0.15 in Rain Rain
2:43 PM 55.4 °F - 51.8 °F 88% 29.70 in 7.0 mi SW 11.5 mph - 0.28 in Rain Light Rain
2:51 PM 55.9 °F - 51.1 °F 84% 29.70 in 10.0 mi SW 12.7 mph 21.9 mph 0.29 in   Scattered Clouds
3:51 PM 55.9 °F - 52.0 °F 87% 29.73 in 10.0 mi WSW 11.5 mph - 0.00 in   Mostly Cloudy
4:51 PM 57.0 °F - 51.1 °F 81% 29.75 in 10.0 mi WSW 12.7 mph 20.7 mph N/A   Overcast
5:51 PM 55.9 °F - 48.0 °F 75% 29.78 in 10.0 mi WSW 10.4 mph - N/A   Overcast
6:25 PM 53.6 °F - 44.6 °F 72% 29.83 in 10.0 mi West 15.0 mph 27.6 mph N/A   Mostly Cloudy
6:51 PM 50.0 °F - 41.0 °F 71% 29.87 in 10.0 mi West 15.0 mph 25.3 mph N/A   Partly Cloudy
7:51 PM 46.0 °F 39.9 °F 34.0 °F 63% 29.92 in 10.0 mi WNW 13.8 mph 26.5 mph N/A   Mostly Cloudy
8:51 PM 44.6 °F 39.2 °F 33.8 °F 66% 29.95 in 10.0 mi West 10.4 mph 21.9 mph N/A   Overcast
9:51 PM 41.0 °F 34.7 °F 32.0 °F 70% 30.01 in 9.0 mi WNW 10.4 mph 24.2 mph N/A   Overcast
10:51 PM 39.0 °F 31.0 °F 28.0 °F 65% 30.04 in 10.0 mi WNW 13.8 mph 20.7 mph N/A   Overcast
11:51 PM 37.0 °F 28.9 °F 25.0 °F 62% 30.08 in 10.0 mi NW 12.7 mph 24.2 mph N/A   Overcast